• In Hungary
  • List of Countries
  • For 7 days
  • Water Temperature
  • Satellite Maps
  • Weather Map
  • News
  • Weather Widgets
  • user-avatar
    Login

    Hourly Weather Castrillon

    Today, 26 September, Wednesday

    Time Temperature Precipitation Wind Pressure Humidity
    00:00 +12°C° 0 mm 3 mps 731 mmHg 74%
    01:00 +12°C° 0 mm 3 mps 731 mmHg 71%
    02:00 +12°C° 0 mm 3 mps 731 mmHg 68%
    03:00 +12°C° 0 mm 3 mps 730 mmHg 65%
    04:00 +13°C° 0 mm 2 mps 730 mmHg 63%
    05:00 +13°C° 0 mm 2 mps 730 mmHg 61%
    06:00 +13°C° 0 mm 2 mps 730 mmHg 59%
    07:00 +16°C° 0 mm 2 mps 730 mmHg 52%
    08:00 +19°C° 0 mm 2 mps 731 mmHg 46%
    09:00 +21°C° 0 mm 2 mps 731 mmHg 39%
    10:00 +25°C° 0 mm 2 mps 731 mmHg 36%
    11:00 +27°C° 0 mm 2 mps 731 mmHg 33%
    12:00 +29°C° 0 mm 2 mps 731 mmHg 30%
    13:00 +29°C° 0 mm 2 mps 731 mmHg 31%
    14:00 +29°C° 0 mm 2 mps 731 mmHg 32%
    15:00 +29°C° 0 mm 2 mps 731 mmHg 33%
    16:00 +27°C° 0 mm 2 mps 731 mmHg 41%
    17:00 +25°C° 0 mm 1 mps 731 mmHg 50%
    18:00 +22°C° 0 mm 1 mps 731 mmHg 58%
    19:00 +22°C° 0 mm 1 mps 731 mmHg 58%
    20:00 +21°C° 0 mm 1 mps 732 mmHg 57%
    21:00 +20°C° 0 mm 1 mps 732 mmHg 57%
    22:00 +20°C° 0 mm 1 mps 732 mmHg 56%
    23:00 +20°C° 0 mm 1 mps 732 mmHg 54%

    Tomorrow, 27 September, Thursday

    Time Temperature Precipitation Wind Pressure Humidity
    00:00 +20°C° 0 mm 1 mps 732 mmHg 52%
    01:00 +20°C° 0 mm 1 mps 732 mmHg 51%
    02:00 +20°C° 0 mm 1 mps 732 mmHg 50%
    03:00 +20°C° 0 mm 1 mps 732 mmHg 49%
    04:00 +20°C° 0 mm 1 mps 732 mmHg 49%
    05:00 +20°C° 0 mm 1 mps 732 mmHg 49%
    06:00 +20°C° 0 mm 1 mps 732 mmHg 49%
    07:00 +22°C° 0 mm 1 mps 733 mmHg 46%
    08:00 +24°C° 0 mm 1 mps 733 mmHg 43%
    09:00 +26°C° 0 mm 1 mps 734 mmHg 40%
    10:00 +28°C° 0 mm 1 mps 734 mmHg 37%
    11:00 +30°C° 0 mm 1 mps 734 mmHg 34%
    12:00 +32°C° 0 mm 1 mps 734 mmHg 30%
    13:00 +31°C° 0 mm 1 mps 733 mmHg 33%
    14:00 +30°C° 0 mm 1 mps 733 mmHg 36%
    15:00 +29°C° 0 mm 1 mps 733 mmHg 39%
    16:00 +27°C° 0.1 mm 1 mps 732 mmHg 48%
    17:00 +24°C° 0.1 mm 1 mps 732 mmHg 57%
    18:00 +20°C° 0.1 mm 0 mps 732 mmHg 66%
    19:00 +21°C° 0.2 mm 1 mps 732 mmHg 70%
    20:00 +20°C° 0.2 mm 1 mps 733 mmHg 74%
    21:00 +19°C° 0.2 mm 1 mps 733 mmHg 78%
    22:00 +19°C° 0.2 mm 1 mps 732 mmHg 79%
    23:00 +19°C° 0.2 mm 1 mps 732 mmHg 80%

    Day after tomorrow, 28 September, Friday

    Time Temperature Precipitation Wind Pressure Humidity
    00:00 +19°C° 0.2 mm 1 mps 732 mmHg 81%
    01:00 +19°C° 0.1 mm 1 mps 731 mmHg 80%
    02:00 +18°C° 0.1 mm 1 mps 731 mmHg 80%
    03:00 +18°C° 0.1 mm 1 mps 731 mmHg 79%
    04:00 +18°C° 0.1 mm 1 mps 730 mmHg 79%
    05:00 +18°C° 0.1 mm 1 mps 730 mmHg 79%
    06:00 +18°C° 0.1 mm 1 mps 730 mmHg 79%
    07:00 +20°C° 0 mm 1 mps 730 mmHg 71%
    08:00 +20°C° 0 mm 0 mps 731 mmHg 64%
    09:00 +23°C° 0 mm 0 mps 731 mmHg 56%
    10:00 +26°C° 0.1 mm 1 mps 731 mmHg 52%
    11:00 +27°C° 0.1 mm 1 mps 730 mmHg 48%
    12:00 +28°C° 0.1 mm 2 mps 730 mmHg 45%
    13:00 +28°C° 0.2 mm 2 mps 730 mmHg 47%
    14:00 +27°C° 0.2 mm 2 mps 729 mmHg 48%
    15:00 +27°C° 0.2 mm 2 mps 729 mmHg 50%
    16:00 +25°C° 0.1 mm 2 mps 728 mmHg 60%
    17:00 +23°C° 0.1 mm 2 mps 728 mmHg 69%
    18:00 +20°C° 0.1 mm 2 mps 728 mmHg 78%
    19:00 +19°C° 0 mm 2 mps 728 mmHg 84%
    20:00 +19°C° 0 mm 1 mps 728 mmHg 89%
    21:00 +18°C° 0 mm 1 mps 728 mmHg 95%
    22:00 +18°C° 0 mm 1 mps 728 mmHg 95%
    23:00 +17°C° 0 mm 2 mps 728 mmHg 95%

    29 September, Saturday

    Time Temperature Precipitation Wind Pressure Humidity
    00:00 +17°C° 0 mm 2 mps 728 mmHg 95%
    01:00 +17°C° 0 mm 2 mps 727 mmHg 95%
    02:00 +16°C° 0 mm 2 mps 727 mmHg 96%
    03:00 +16°C° 0 mm 2 mps 726 mmHg 96%
    04:00 +16°C° 0 mm 2 mps 726 mmHg 96%
    05:00 +16°C° 0 mm 2 mps 726 mmHg 96%
    06:00 +16°C° 0 mm 2 mps 726 mmHg 95%
    07:00 +17°C° 0.1 mm 2 mps 726 mmHg 92%
    08:00 +18°C° 0.1 mm 2 mps 726 mmHg 88%
    09:00 +18°C° 0.1 mm 2 mps 726 mmHg 85%
    10:00 +19°C° 0.1 mm 2 mps 726 mmHg 81%
    11:00 +20°C° 0.1 mm 2 mps 726 mmHg 77%
    12:00 +21°C° 0.1 mm 2 mps 726 mmHg 73%
    13:00 +21°C° 0 mm 2 mps 725 mmHg 73%
    14:00 +21°C° 0 mm 2 mps 725 mmHg 73%
    15:00 +20°C° 0 mm 2 mps 724 mmHg 74%
    16:00 +19°C° 0 mm 2 mps 724 mmHg 79%
    17:00 +18°C° 0 mm 2 mps 724 mmHg 84%
    18:00 +17°C° 0 mm 2 mps 724 mmHg 90%
    19:00 +18°C° 0 mm 1 mps 725 mmHg 92%
    20:00 +16°C° 0 mm 1 mps 725 mmHg 94%
    21:00 +16°C° 0 mm 1 mps 725 mmHg 97%
    22:00 +15°C° 0 mm 1 mps 725 mmHg 97%
    23:00 +15°C° 0 mm 1 mps 725 mmHg 96%

    30 September, Sunday

    Time Temperature Precipitation Wind Pressure Humidity
    00:00 +15°C° 0 mm 1 mps 725 mmHg 96%
    01:00 +15°C° 0 mm 1 mps 724 mmHg 96%
    02:00 +15°C° 0 mm 1 mps 724 mmHg 95%
    03:00 +15°C° 0 mm 1 mps 724 mmHg 94%
    04:00 +15°C° 0 mm 1 mps 724 mmHg 94%
    05:00 +15°C° 0 mm 1 mps 724 mmHg 94%
    06:00 +14°C° 0 mm 1 mps 724 mmHg 95%
    07:00 +16°C° 0 mm 1 mps 725 mmHg 89%
    08:00 +18°C° 0 mm 1 mps 725 mmHg 83%
    09:00 +19°C° 0 mm 1 mps 725 mmHg 77%
    10:00 +21°C° 0 mm 1 mps 725 mmHg 70%
    11:00 +21°C° 0 mm 2 mps 725 mmHg 63%
    12:00 +24°C° 0 mm 2 mps 725 mmHg 57%
    13:00 +23°C° 0 mm 2 mps 725 mmHg 62%
    14:00 +21°C° 0 mm 3 mps 725 mmHg 66%
    15:00 +20°C° 0 mm 3 mps 725 mmHg 71%
    16:00 +19°C° 0.1 mm 3 mps 725 mmHg 78%
    17:00 +18°C° 0.1 mm 3 mps 725 mmHg 85%
    18:00 +16°C° 0.1 mm 3 mps 725 mmHg 93%
    19:00 +16°C° 0.1 mm 3 mps 726 mmHg 93%
    20:00 +16°C° 0.1 mm 3 mps 726 mmHg 93%
    21:00 +16°C° 0.1 mm 3 mps 727 mmHg 94%
    22:00 +14°C° 0.1 mm 3 mps 726 mmHg 94%
    23:00 +14°C° 0.1 mm 3 mps 726 mmHg 94%

    1 October, Monday

    Time Temperature Precipitation Wind Pressure Humidity
    00:00 +14°C° 0.1 mm 3 mps 726 mmHg 94%
    01:00 +14°C° 0.1 mm 3 mps 726 mmHg 92%
    02:00 +13°C° 0.1 mm 3 mps 726 mmHg 91%
    03:00 +13°C° 0.1 mm 3 mps 726 mmHg 90%
    04:00 +13°C° 0 mm 3 mps 726 mmHg 90%
    05:00 +13°C° 0 mm 3 mps 726 mmHg 89%
    06:00 +13°C° 0 mm 3 mps 726 mmHg 89%
    07:00 +13°C° 0.1 mm 3 mps 726 mmHg 86%
    08:00 +14°C° 0.1 mm 4 mps 726 mmHg 83%
    09:00 +14°C° 0.1 mm 4 mps 726 mmHg 81%
    10:00 +15°C° 0.1 mm 4 mps 726 mmHg 77%
    11:00 +16°C° 0.1 mm 5 mps 726 mmHg 73%
    12:00 +16°C° 0.1 mm 5 mps 726 mmHg 69%
    13:00 +16°C° 0 mm 5 mps 726 mmHg 68%
    14:00 +16°C° 0 mm 5 mps 725 mmHg 67%
    15:00 +16°C° 0 mm 5 mps 725 mmHg 67%
    16:00 +16°C° 0 mm 5 mps 725 mmHg 70%
    17:00 +15°C° 0 mm 5 mps 726 mmHg 74%
    18:00 +14°C° 0 mm 4 mps 726 mmHg 77%
    19:00 +14°C° 0 mm 4 mps 726 mmHg 80%
    20:00 +13°C° 0 mm 4 mps 726 mmHg 82%
    21:00 +13°C° 0 mm 4 mps 727 mmHg 84%
    22:00 +12°C° 0 mm 4 mps 727 mmHg 85%
    23:00 +12°C° 0 mm 3 mps 727 mmHg 86%
    Show more